Lincoln Laboratory Near-Earth Asteroid Research project
軌道要素
Epoch = 2000 June 25.0 TT
T = 2000 July 14.2917 TT Peri. = 317.7452
e = 0.666835 Node = 55.3594 2000.0
q = 1.319021 AU Incl. = 21.6197
a = 3.959066 AU n = 0.1251166 P = 7.878 years
星図
光度変化
m1 = 13.5 + 5 logΔ + 15.0 log r
軌道要素は中野主一氏の計算によるもので、
IAUC 7499
に掲載されたものです。
星図は StellaNavigator Ver.2.0 for Windows
(アストロアーツ
編著 / アスキー出版局刊) で作成したものです。
光度グラフはComet for
Windowsで作成したものです。
Copyright(C) Seiichi Yoshida (comet@aerith.net). All rights reserved.